CW9454 Weather Reports


Display with metric or nautical units.
time (UTC)temp
F
wind
direction
speed
MPH
gust
MPH
rain 1hr
in
rain 24hr
in
rain mn
in
humidity
%
barometer
mb
20260503200038 63 291 0.0 9.0 0.00 0.00 0.00 37 1014.4
20260503195022 63 267 5.0 11.0 0.00 0.00 0.00 36 1014.7
20260503194036 62 277 3.0 12.0 0.00 0.00 0.00 38 1014.5
20260503193058 62 313 1.0 6.0 0.00 0.00 0.00 36 1014.8
20260503192020 61 254 4.0 18.0 0.00 0.00 0.00 37 1014.9
20260503191014 62 271 1.0 11.0 0.00 0.00 0.00 36 1015.1
20260503190053 63 215 4.0 11.0 0.00 0.00 0.00 38 1015.0
20260503185023 62 279 2.0 13.0 0.00 0.00 0.00 39 1015.1
20260503184016 61 252 3.0 17.0 0.00 0.00 0.00 37 1015.3
20260503183030 61 351 3.0 12.0 0.00 0.00 0.00 37 1015.6
20260503182015 60 248 0.0 14.0 0.00 0.00 0.00 36 1015.5
20260503181055 61 308 3.0 10.0 0.00 0.00 0.00 39 1015.8
20260503180022 60 300 5.0 12.0 0.00 0.00 0.00 38 1015.6
20260503175031 60 267 3.0 14.0 0.00 0.00 0.00 39 1015.8
20260503174017 60 344 2.0 12.0 0.00 0.00 0.00 38 1016.2
20260503173040 60 311 2.0 9.0 0.00 0.00 0.00 35 1016.1
20260503172025 60 236 0.0 12.0 0.00 0.00 0.00 40 1016.0
20260503171021 59 330 3.0 11.0 0.00 0.00 0.00 41 1016.0
20260503131027 47 286 2.0 8.0 0.00 0.00 0.00 57 1016.9
20260503081015 44 262 4.0 9.0 0.00 0.00 0.00 71 1013.9
20260503072040 45 235 3.0 9.0 0.00 0.00 0.00 69 1013.6
20260503071025 45 246 3.0 7.0 0.00 0.00 0.00 69 1013.5
20260503055027 48 257 0.0 6.0 0.00 0.00 0.00 64 1013.4
20260503054013 48 281 2.0 4.0 0.00 0.00 0.00 63 1013.5
20260503053027 49 302 0.0 2.0 0.00 0.00 0.00 61 1013.4
20260503052021 49 307 0.0 5.0 0.00 0.00 0.00 60 1013.4
20260503051015 49 248 0.0 7.0 0.00 0.00 0.00 59 1013.4
20260503050042 50 288 0.0 5.0 0.00 0.00 0.00 58 1013.4
20260503045038 50 321 0.0 6.0 0.00 0.00 0.00 58 1013.5
20260503044022 50 263 1.0 6.0 0.00 0.00 0.00 57 1013.5
20260503043014 51 329 0.0 12.0 0.00 0.00 0.00 56 1013.5
20260503042028 51 308 1.0 5.0 0.00 0.00 0.00 57 1013.5
20260503041021 51 333 0.0 8.0 0.00 0.00 0.00 57 1013.6
20260503040029 52 300 1.0 9.0 0.00 0.00 0.00 57 1013.5
20260503035021 52 345 0.0 6.0 0.00 0.00 0.00 56 1013.5
20260503034036 52 310 1.0 11.0 0.00 0.00 0.00 55 1013.4
20260503033031 52 263 0.0 10.0 0.00 0.00 0.00 56 1013.3
20260503032044 53 312 1.0 8.0 0.00 0.00 0.00 56 1013.3
20260503031038 53 21 0.0 9.0 0.00 0.00 0.00 56 1013.4
20260503030025 53 5 2.0 8.0 0.00 0.00 0.00 54 1013.4
20260503025040 54 5 1.0 9.0 0.00 0.00 0.00 53 1013.5
20260503024025 54 306 0.0 9.0 0.00 0.00 0.00 53 1013.5
20260503023019 54 307 1.0 13.0 0.00 0.00 0.00 51 1013.4
20260503022014 55 291 3.0 14.0 0.00 0.00 0.00 51 1013.2
20260503021028 55 327 0.0 6.0 0.00 0.00 0.00 50 1013.2
20260503020015 55 317 1.0 8.0 0.00 0.00 0.00 50 1013.2
20260503015030 55 339 1.0 6.0 0.00 0.00 0.00 50 1013.1
20260503014023 55 335 0.0 5.0 0.00 0.00 0.00 51 1013.2
20260503013038 55 322 0.0 6.0 0.00 0.00 0.00 50 1013.1
20260503012024 55 333 0.0 1.0 0.00 0.00 0.00 50 1013.0
20260503011019 55 333 0.0 5.0 0.00 0.00 0.00 50 1012.9
20260503010026 56 320 0.0 2.0 0.00 0.00 0.00 49 1012.9
20260503005020 56 328 0.0 1.0 0.00 0.00 0.00 49 1012.7
20260503004014 56 328 0.0 3.0 0.00 0.00 0.00 49 1012.6
20260503003028 56 329 0.0 8.0 0.00 0.00 0.00 48 1012.6
20260503002022 56 288 0.0 10.0 0.00 0.00 0.00 46 1012.4
20260503001037 57 329 1.0 8.0 0.00 0.00 0.00 46 1012.2
20260503000025 57 322 1.0 6.0 0.00 0.00 0.00 46 1012.2
20260502235036 57 321 0.0 7.0 0.00 0.00 0.00 46 1012.1
20260502234021 57 263 0.0 5.0 0.00 0.00 0.00 45 1012.0
20260502233015 58 336 1.0 4.0 0.00 0.00 0.00 45 1011.9
20260502232029 58 301 1.0 5.0 0.00 0.00 0.00 44 1011.9
20260502231023 58 265 1.0 8.0 0.00 0.00 0.00 43 1011.7
20260502230012 59 294 0.0 4.0 0.00 0.00 0.00 43 1011.7
20260502225026 60 264 0.0 5.0 0.00 0.00 0.00 42 1011.6
20260502224013 60 267 0.0 3.0 0.00 0.00 0.00 43 1011.7
20260502223036 60 309 1.0 6.0 0.00 0.00 0.00 41 1011.7
20260502222030 60 268 1.0 5.0 0.00 0.00 0.00 43 1011.6
20260502221017 60 317 1.0 5.0 0.00 0.00 0.00 43 1011.5
20260502220033 60 324 0.0 2.0 0.00 0.00 0.00 44 1011.4
20260502215018 60 317 0.0 3.0 0.00 0.00 0.00 43 1011.7
20260502214013 60 315 0.0 2.0 0.00 0.00 0.00 44 1011.4
20260502213026 60 323 0.0 3.0 0.00 0.00 0.00 44 1011.6
20260502212020 60 321 0.0 3.0 0.00 0.00 0.00 42 1011.5
20260502211013 60 329 0.0 5.0 0.00 0.00 0.00 42 1011.3
20260502210022 61 336 2.0 9.0 0.00 0.00 0.00 43 1011.3
20260502205033 61 292 0.0 2.0 0.00 0.00 0.00 44 1011.2
20260502204025 60 302 0.0 4.0 0.00 0.00 0.00 42 1011.3
20260502203020 61 326 0.0 3.0 0.00 0.00 0.00 44 1011.2
20260502202013 61 326 0.0 5.0 0.00 0.00 0.00 42 1011.2
20260502201027 61 313 1.0 5.0 0.00 0.00 0.00 43 1011.3